User: anonymous   Login
Location: Steinbach
(49.5170°N, 96.6830°W)
Time: 09:16:29
(UTC-05:00)
Language:

NOSS 3-4 (A) - Orbit

View from above orbital plane
View from above orbital plane
View from above satellite
View from above satellite

Ground track
Ground track

The orbit data is extracted from the following two-line orbital elements,

1 31701U 07027A   16124.83550865 0.00000000  00000-0  00000-0 0    05
2 31701  63.4039  46.7985 0155000  27.2462 332.7538 13.40705888    07
Epoch (UTC): 03 May 2016 20:03:07
Eccentricity: 0.0155000
inclination: 63.4039°
perigee height: 990 km
apogee height: 1222 km
right ascension of ascending node: 46.7985°
argument of perigee: 27.2462°
revolutions per day: 13.40705888
mean anomaly at epoch: 332.7538°
orbit number at epoch: 0

The dashed part of the orbit path shows where the satellite is in the earth's shadow,  

DLR